Location: Zerbst
(51.9650°N, 12.0766°E)
Time: 11:44:55
(UTC+02:00)

ISS - Pass Details

Date: 17 May 2017
Orbit: 401 x 407 km, 51.6° (Epoch: 25 September)

Event Time Altitude Azimuth Distance (km) Brightness Sun altitude
Exits shadow 01:43:28 18° 110° (ESE) 1,095 -1.8 -18.3°
Drops below altitude 10° 01:44:47 10° 92° (E) 1,488 -0.9 -18.3°
Sets 01:47:07 0° 78° (ENE) 2,350 0.3 -18.2°
